Qusmuryn

Kazakhstan     52˚27′05″N   64˚36′37″E
temp.,
°C
wind,
m/s
gust,
m/s
humid.,
%
clouds,
%
prec.,
mm/h
press.,
hPa
HPBL,
m
29 november, sun
sun2923:00−13˚nnw369349 0.0 1042136
02:00−14˚nnw459332 0.0 1044110
05:00−14˚nnw359322 0.0 1046109
08:00−15˚nnw349317 0.0 104780
11:00−13˚nnw359024 0.0 1049224
14:00−12˚nnw348934 0.0 1049274
17:00−14˚nnw339227 0.0 105044
20:00−14˚nnw33920 0.0 105137
30 november, mon
mon3023:00−15˚n33930 0.0 105132
02:00−15˚n23930 0.0 105124
05:00−15˚nnw229425 0.0 105222
08:00−15˚n229451 0.0 105226
11:00−13˚nne249276 0.0 1052215
14:00−13˚nne239192 0.0 1052248
17:00−15˚nne339460 0.0 105232
20:00−16˚ne349522 0.0 105259
1 december, tue
tue123:00−17˚ne339420 0.0 105250
02:00−18˚ne34940 0.0 105251
05:00−18˚ne34947 0.0 105156
08:00−18˚ne34920 0.0 105174
11:00−16˚ne35890 0.0 1052187
14:00−14˚ne45890 0.0 1051264
17:00−16˚ne45930 0.0 105091
20:00−17˚ne45920 0.0 105091
2 december, wed
wed223:00−17˚ene35900 0.0 105074
02:00−17˚ne44910 0.0 104968
05:00−17˚ne45910 0.0 104786
08:00−16˚ne45920 0.0 104680
11:00−14˚ne46900 0.0 1045200
14:00−11˚ne47870 0.0 1043258
17:00−13˚ne469015 0.0 104299
20:00−14˚ene459043 0.0 104179
3 december, thu
thu323:00−15˚ene459022 0.0 104074
02:00−15˚ne45900 0.0 103888
05:00−16˚ne46900 0.0 1038102
08:00−16˚ne47900 0.0 1037130
11:00−12˚ne598426 0.0 1036342
14:00−10˚ne5883100 0.0 1035410
17:00−12˚nne5991100 0.0 1034201
20:00−12˚ne6991100 0.0 1034235